Regional Weather Roundup
Issued by NWS

Home | Current Version | Previous Version | Graphics & Text | Print | Product List | Glossary On
Versions: 1 2 3 4 5 6 7 8 9 10 11 12 13 14 15 16 17 18 19 20 21 22 23 24 25 26 27 28 29 30 31 32 33 34 35 36 37 38 39 40 41 42 43 44 45 46 47 48 49 50
000
ASUS45 KBOI 200310
RWRID
WEATHER ROUNDUP FOR IDAHO
NATIONAL WEATHER SERVICE BOISE ID
900 PM MDT TUE AUG 19 2014

NOTE: "FAIR" INDICATES FEW OR NO CLOUDS BELOW 12000 FEET
WITH NO SIGNIFICANT WEATHER AND/OR OBSTRUCTIONS TO VISIBILITY

IDZ012-014-200400-
SOUTHWEST IDAHO


CITY           SKY/WX    TMP DP  RH WIND       PRES   REMARKS
BOISE          CLOUDY    79  45  29 NE14      29.73F
CALDWELL       CLOUDY    75  46  35 CALM      29.72S
MOUNTAIN HOME  MOCLDY    82  43  25 S3        29.77R
$$

IDZ016-017-200400-
SOUTHCENTRAL IDAHO


CITY           SKY/WX    TMP DP  RH WIND       PRES   REMARKS
BURLEY         CLOUDY    72  45  37 SW7       29.83R
JEROME         CLOUDY    66  49  54 NE10      29.83R
TWIN FALLS     CLOUDY    73  43  33 S18G26    29.80R
$$

IDZ019>023-200400-
SOUTHEAST IDAHO


CITY           SKY/WX    TMP DP  RH WIND       PRES   REMARKS
IDAHO FALLS    RAIN      61  54  77 E16       29.97R
POCATELLO      CLOUDY    65  49  56 NE5       29.92R
REXBURG        RAIN      58  52  80 E9        29.99R
$$

IDZ006-010-011-018-031-032-200400-
CENTRAL IDAHO MOUNTAINS


CITY           SKY/WX    TMP DP  RH WIND       PRES   REMARKS
MCCALL         CLOUDY    71  36  27 NW12G18   29.86R
HAILEY         TSTM      64  52  63 NW12      29.95R
STANLEY          N/A     65  37  35 VRB6      29.95R
SALMON         MOCLDY    63  54  72 CALM      29.86R
CHALLIS        LGT RAIN  66  44  45 NW18G29   29.92R
$$

IDZ002-004-006-007-026-200400-
NORTHERN IDAHO


CITY           SKY/WX    TMP DP  RH WIND       PRES   REMARKS
LEWISTON       PTCLDY    85  39  19 W8G18     29.64R
LOWELL           N/A     72  59  63 VRB3      29.65R
COEUR D`ALENE  MOCLDY    64  55  72 N3        29.71R
MULLAN PASS    PTCLDY    60  50  69 S3        29.91R
$$



USA.gov is the U.S. government's official web portal to all federal, state and local government web resources and services.